"SCLK","SCET","ORBIT_NUMBER","ALTITUDE","LATITUDE_PLANEOGRAPHIC","LATITUDE_PLANETOCENTRIC","LOCAL_TRUE_SOLAR_TIME","WEST_LONGITUDE","X_SUN_DIR_DISTANCE","RHO_PRP_SUN_DISTANCE","SOLAR_ZENITH_ANGLE","ELECTRON_PLASMA_FREQUENCY","FPE_QUALITY","FPP_VERIFICATION","ELECTRON_PLASMA_DENSITY","ELECTRON_CYCLOTRON_PERIOD","FCP_QUALITY","B_MAGNITUDE"
"1/0364564967.35145",2014-11-20T12:02:51.441,13818,1557.00,46.95,46.68,"00:40:59",19.71,-1.090,0.960,138.67,,,,,2.99e+00,1,1.19e+01
"1/0364564982.40846",2014-11-20T12:03:06.528,13818,1535.00,47.52,47.25,"00:41:14",19.71,-1.080,0.960,138.39,,,,,2.68e+00,1,1.33e+01
"1/0364564990.10896",2014-11-20T12:03:14.071,13818,1524.00,47.80,47.53,"00:43:39",19.70,-1.080,0.960,138.24,,,,,2.75e+00,1,1.30e+01
"1/0364564997.46482",2014-11-20T12:03:21.614,13818,1513.00,48.09,47.82,"00:43:46",19.70,-1.080,0.960,138.10,,,,,2.72e+00,1,1.31e+01
"1/0364565005.16532",2014-11-20T12:03:29.157,13818,1503.00,48.37,48.10,"00:46:11",19.69,-1.070,0.960,137.95,,,,,2.75e+00,1,1.30e+01
"1/0364565012.52184",2014-11-20T12:03:36.701,13818,1492.00,48.66,48.39,"00:46:18",19.69,-1.070,0.960,137.80,,,,,2.80e+00,1,1.28e+01
"1/0364565020.22234",2014-11-20T12:03:44.244,13818,1481.00,48.95,48.68,"00:48:43",19.68,-1.060,0.960,137.65,,,,,2.83e+00,1,1.26e+01
"1/0364565027.57820",2014-11-20T12:03:51.787,13818,1471.00,49.24,48.97,"00:48:50",19.68,-1.060,0.960,137.50,,,,,2.75e+00,1,1.30e+01
"1/0364565035.27870",2014-11-20T12:03:59.330,13818,1460.00,49.53,49.26,"00:51:15",19.67,-1.050,0.960,137.34,,,,,2.80e+00,1,1.27e+01
"1/0364565042.63456",2014-11-20T12:04:06.873,13818,1449.00,49.83,49.56,"00:51:23",19.67,-1.050,0.960,137.19,,,,,2.73e+00,1,1.31e+01
"1/0364565050.33572",2014-11-20T12:04:14.417,13818,1439.00,50.12,49.85,"00:53:48",19.66,-1.040,0.970,137.03,,,,,2.75e+00,1,1.30e+01
"1/0364565058.03622",2014-11-20T12:04:21.960,13818,1428.00,50.42,50.15,"00:56:12",19.65,-1.040,0.970,136.87,,,,,2.77e+00,1,1.29e+01
"1/0364565065.39208",2014-11-20T12:04:29.503,13818,1418.00,50.71,50.44,"00:58:37",19.64,-1.030,0.970,136.71,,,,,2.80e+00,1,1.27e+01
"1/0364565073.09258",2014-11-20T12:04:37.046,13818,1407.00,51.01,50.74,"01:01:02",19.63,-1.030,0.970,136.54,,,,,2.65e+00,1,1.35e+01
"1/0364565080.44844",2014-11-20T12:04:44.589,13818,1397.00,51.31,51.04,"01:03:27",19.62,-1.020,0.970,136.38,,,,,2.75e+00,1,1.30e+01
"1/0364565088.14959",2014-11-20T12:04:52.133,13818,1386.00,51.61,51.34,"01:05:52",19.61,-1.020,0.970,136.21,,,,,2.75e+00,1,1.30e+01
"1/0364565095.50545",2014-11-20T12:04:59.676,13818,1376.00,51.91,51.64,"01:08:17",19.60,-1.010,0.970,136.04,,,,,2.80e+00,1,1.28e+01
"1/0364565103.20595",2014-11-20T12:05:07.219,13818,1365.00,52.22,51.95,"01:10:41",19.59,-1.010,0.970,135.87,,,,,2.74e+00,1,1.30e+01
"1/0364565110.56181",2014-11-20T12:05:14.762,13818,1355.00,52.52,52.25,"01:15:24",19.57,-1.000,0.970,135.69,,,,,2.79e+00,1,1.28e+01
"1/0364565118.26231",2014-11-20T12:05:22.305,13818,1345.00,52.83,52.56,"01:17:49",19.56,-1.000,0.970,135.52,,,,,2.67e+00,1,1.34e+01
"1/0364565125.61883",2014-11-20T12:05:29.849,13818,1334.00,53.13,52.86,"01:22:31",19.54,-0.990,0.970,135.34,,,,,2.60e+00,1,1.38e+01
"1/0364565133.31933",2014-11-20T12:05:37.392,13818,1324.00,53.44,53.17,"01:24:56",19.53,-0.980,0.970,135.16,,,,,2.69e+00,2,1.33e+01
"1/0364565141.01983",2014-11-20T12:05:44.935,13818,1314.00,53.75,53.48,"01:29:38",19.51,-0.980,0.980,134.98,,,,,2.67e+00,1,1.34e+01
"1/0364565148.37569",2014-11-20T12:05:52.478,13818,1304.00,54.06,53.79,"01:34:21",19.49,-0.970,0.980,134.80,,,,,2.69e+00,1,1.33e+01
"1/0364565156.07619",2014-11-20T12:06:00.021,13818,1293.00,54.38,54.11,"01:36:45",19.48,-0.970,0.980,134.61,,,,,2.52e+00,1,1.42e+01
"1/0364565163.43271",2014-11-20T12:06:07.565,13818,1283.00,54.69,54.42,"01:41:28",19.46,-0.960,0.980,134.43,,,,,2.72e+00,1,1.31e+01
"1/0364565171.13321",2014-11-20T12:06:15.108,13818,1273.00,55.00,54.74,"01:46:10",19.44,-0.960,0.980,134.24,,,,,2.74e+00,1,1.30e+01
"1/0364565178.48907",2014-11-20T12:06:22.651,13818,1263.00,55.32,55.05,"01:53:10",19.41,-0.950,0.980,134.05,,,,,2.82e+00,1,1.27e+01
"1/0364565186.18957",2014-11-20T12:06:30.194,13818,1253.00,55.64,55.37,"01:57:52",19.39,-0.950,0.980,133.86,,,,,2.67e+00,1,1.34e+01
"1/0364565631.22167",2014-11-20T12:13:55.243,13818,730.00,76.75,76.61,"04:15:00",12.54,-0.590,1.050,119.12,4.20e+01,2,,2.19e+01,,,
"1/0364565638.57753",2014-11-20T12:14:02.786,13818,723.00,77.14,77.00,"05:44:30",12.15,-0.580,1.060,118.82,7.20e+01,2,,6.43e+01,,,
"1/0364565646.27868",2014-11-20T12:14:10.330,13818,716.00,77.54,77.40,"07:20:53",11.73,-0.580,1.060,118.51,8.20e+01,2,,8.34e+01,2.47e+00,2,1.44e+01
"1/0364565653.63454",2014-11-20T12:14:17.873,13818,708.00,77.93,77.80,"09:06:25",11.27,-0.570,1.060,118.20,6.60e+01,2,,5.40e+01,2.21e+00,1,1.62e+01
"1/0364565661.33505",2014-11-20T12:14:25.416,13818,701.00,78.33,78.20,"10:56:33",10.79,-0.560,1.060,117.89,8.70e+01,2,,9.39e+01,2.07e+00,1,1.72e+01
"1/0364565669.03555",2014-11-20T12:14:32.959,13818,694.00,78.72,78.60,"12:58:09",10.26,-0.560,1.060,117.58,9.70e+01,2,,1.17e+02,1.95e+00,2,1.84e+01
"1/0364565676.39141",2014-11-20T12:14:40.502,13818,687.00,79.12,79.00,"15:08:54",9.69,-0.550,1.060,117.26,8.30e+01,2,,8.54e+01,1.90e+00,1,1.88e+01
"1/0364565684.09256",2014-11-20T12:14:48.046,13818,680.00,79.51,79.40,"17:28:49",9.08,-0.540,1.060,116.95,8.70e+01,2,,9.39e+01,2.01e+00,1,1.78e+01
"1/0364565691.44842",2014-11-20T12:14:55.589,13818,673.00,79.91,79.80,"20:00:12",8.42,-0.540,1.060,116.63,7.90e+01,2,,7.74e+01,2.12e+00,1,1.68e+01
"1/0364565699.14892",2014-11-20T12:15:03.132,13818,667.00,80.31,80.20,"22:47:38",7.69,-0.530,1.070,116.31,9.10e+01,2,,1.03e+02,2.40e+00,1,1.49e+01
"1/0364565706.50478",2014-11-20T12:15:10.675,13818,660.00,80.70,80.59,"01:48:49",6.90,-0.520,1.070,115.99,9.20e+01,2,,1.05e+02,2.15e+00,1,1.66e+01
"1/0364565714.20528",2014-11-20T12:15:18.218,13818,653.00,81.09,80.99,"05:08:19",6.03,-0.510,1.070,115.67,8.10e+01,2,,8.14e+01,2.04e+00,1,1.75e+01
"1/0364565721.56180",2014-11-20T12:15:25.762,13818,647.00,81.49,81.39,"08:46:10",5.08,-0.510,1.070,115.34,6.20e+01,2,,4.77e+01,,,
"1/0364565729.26230",2014-11-20T12:15:33.305,13818,640.00,81.88,81.79,"12:44:38",4.04,-0.500,1.070,115.02,6.20e+01,2,,4.77e+01,,,
"1/0364565736.61816",2014-11-20T12:15:40.848,13818,634.00,82.27,82.18,"17:10:37",2.88,-0.490,1.070,114.69,4.90e+01,2,,2.98e+01,1.86e+00,1,1.91e+01
"1/0364565744.31866",2014-11-20T12:15:48.391,13818,627.00,82.66,82.57,"22:06:23",1.59,-0.490,1.070,114.36,4.90e+01,2,,2.98e+01,2.02e+00,1,1.77e+01
"1/0364565752.01916",2014-11-20T12:15:55.934,13818,621.00,83.04,82.96,"03:36:32",0.15,-0.480,1.070,114.03,4.70e+01,1,,2.74e+01,,,
"1/0364565759.37567",2014-11-20T12:16:03.478,13818,615.00,83.42,83.34,"02:42:00",358.53,-0.470,1.080,113.70,4.50e+01,2,,2.51e+01,2.01e+00,1,1.78e+01
"1/0364565767.07618",2014-11-20T12:16:11.021,13818,609.00,83.80,83.72,"09:39:15",356.71,-0.470,1.080,113.37,4.90e+01,2,,2.98e+01,2.12e+00,1,1.69e+01
"1/0364565774.43204",2014-11-20T12:16:18.564,13818,603.00,84.17,84.10,"17:31:29",354.65,-0.460,1.080,113.03,5.30e+01,2,,3.48e+01,2.03e+00,1,1.76e+01
"1/0364565782.13254",2014-11-20T12:16:26.107,13818,597.00,84.53,84.46,"02:30:11",352.30,-0.450,1.080,112.69,4.90e+01,2,,2.98e+01,,,
"1/0364565789.48840",2014-11-20T12:16:33.650,13818,591.00,84.88,84.82,"12:46:49",349.61,-0.440,1.080,112.36,4.70e+01,1,,2.74e+01,1.93e+00,1,1.85e+01
"1/0364565797.18955",2014-11-20T12:16:41.194,13818,585.00,85.22,85.16,"00:35:06",346.52,-0.440,1.080,112.02,4.10e+01,1,,2.08e+01,2.01e+00,1,1.78e+01
"1/0364565804.54541",2014-11-20T12:16:48.737,13818,579.00,85.54,85.49,"14:11:07",342.96,-0.430,1.080,111.67,4.50e+01,1,,2.51e+01,1.87e+00,1,1.91e+01
"1/0364565812.24591",2014-11-20T12:16:56.280,13818,573.00,85.85,85.80,"05:55:29",338.84,-0.420,1.080,111.33,4.00e+01,1,,1.98e+01,1.97e+00,1,1.82e+01
"1/0364565819.60177",2014-11-20T12:17:03.823,13818,568.00,86.13,86.08,"00:06:31",334.08,-0.420,1.080,110.99,4.20e+01,2,,2.19e+01,2.04e+00,1,1.75e+01
"1/0364565827.30227",2014-11-20T12:17:11.366,13818,562.00,86.38,86.33,"21:02:33",328.60,-0.410,1.080,110.64,5.00e+01,2,,3.10e+01,2.12e+00,1,1.68e+01
"1/0364565835.00343",2014-11-20T12:17:18.910,13818,557.00,86.59,86.55,"20:55:04",322.35,-0.400,1.090,110.29,5.90e+01,2,,4.32e+01,,,
"1/0364565842.35929",2014-11-20T12:17:26.453,13818,551.00,86.76,86.72,"23:41:46",315.34,-0.390,1.090,109.95,6.70e+01,2,,5.57e+01,2.62e+00,1,1.36e+01
"1/0364565850.05979",2014-11-20T12:17:33.996,13818,546.00,86.87,86.83,"04:57:26",307.68,-0.390,1.090,109.60,8.50e+01,2,,8.96e+01,,,
"1/0364565857.41565",2014-11-20T12:17:41.539,13818,541.00,86.93,86.89,"11:56:14",299.57,-0.380,1.090,109.24,1.10e+02,2,,1.50e+02,2.75e+00,1,1.30e+01
"1/0364565865.11680",2014-11-20T12:17:49.083,13818,535.00,86.92,86.88,"19:29:24",291.31,-0.370,1.090,108.89,1.13e+02,2,,1.58e+02,2.48e+00,1,1.44e+01
"1/0364565872.47266",2014-11-20T12:17:56.626,13818,530.00,86.85,86.81,"02:14:27",283.26,-0.360,1.090,108.54,1.07e+02,2,,1.42e+02,2.40e+00,2,1.49e+01
"1/0364565880.17317",2014-11-20T12:18:04.169,13818,525.00,86.71,86.67,"07:09:30",275.69,-0.360,1.090,108.18,1.14e+02,2,,1.61e+02,2.50e+00,1,1.43e+01
"1/0364565887.52903",2014-11-20T12:18:11.712,13818,520.00,86.53,86.48,"09:28:41",268.80,-0.350,1.090,107.82,1.03e+02,2,,1.32e+02,2.34e+00,1,1.53e+01
"1/0364565895.22953",2014-11-20T12:18:19.255,13818,515.00,86.30,86.25,"08:51:25",262.68,-0.340,1.090,107.47,1.30e+02,2,,2.10e+02,,,
"1/0364565902.58604",2014-11-20T12:18:26.799,13818,511.00,86.03,85.98,"05:19:57",257.32,-0.340,1.090,107.11,1.03e+02,2,,1.32e+02,,,
"1/0364565910.28654",2014-11-20T12:18:34.342,13818,506.00,85.73,85.67,"23:05:47",252.67,-0.330,1.090,106.75,1.10e+02,2,,1.50e+02,2.87e+00,1,1.24e+01
"1/0364565917.64240",2014-11-20T12:18:41.885,13818,501.00,85.40,85.34,"14:27:13",248.65,-0.320,1.090,106.38,1.41e+02,2,,2.47e+02,,,
"1/0364565925.34290",2014-11-20T12:18:49.428,13818,497.00,85.05,84.99,"03:44:54",245.17,-0.310,1.100,106.02,1.53e+02,2,,2.90e+02,3.51e+00,1,1.02e+01
"1/0364565933.04340",2014-11-20T12:18:56.971,13818,492.00,84.69,84.63,"15:17:09",242.15,-0.310,1.100,105.66,1.72e+02,2,,3.67e+02,,,
"1/0364565940.39992",2014-11-20T12:19:04.515,13818,488.00,84.31,84.24,"01:20:01",239.52,-0.300,1.100,105.29,1.76e+02,2,,3.84e+02,,,
"1/0364565948.10042",2014-11-20T12:19:12.058,13818,484.00,83.92,83.85,"10:07:16",237.22,-0.290,1.100,104.92,1.15e+02,2,,1.64e+02,2.73e+00,2,1.31e+01
"1/0364565955.45628",2014-11-20T12:19:19.601,13818,480.00,83.53,83.45,"17:50:20",235.20,-0.280,1.100,104.56,1.39e+02,2,,2.40e+02,,,
"1/0364565963.15678",2014-11-20T12:19:27.144,13818,475.00,83.12,83.04,"00:38:25",233.42,-0.280,1.100,104.19,1.40e+02,2,,2.43e+02,2.02e+00,1,1.77e+01
"1/0364565970.51264",2014-11-20T12:19:34.687,13818,471.00,82.71,82.62,"06:42:56",231.83,-0.270,1.100,103.82,1.56e+02,2,,3.02e+02,2.17e+00,1,1.65e+01
"1/0364565978.21379",2014-11-20T12:19:42.231,13818,468.00,82.29,82.19,"12:06:12",230.42,-0.260,1.100,103.45,1.38e+02,2,,2.36e+02,2.41e+00,1,1.48e+01
"1/0364565985.56966",2014-11-20T12:19:49.774,13818,464.00,81.86,81.76,"16:57:23",229.15,-0.250,1.100,103.07,7.10e+01,2,,6.25e+01,1.90e+00,1,1.88e+01
"1/0364565993.27016",2014-11-20T12:19:57.317,13818,460.00,81.43,81.33,"21:18:47",228.01,-0.250,1.100,102.70,7.40e+01,2,,6.79e+01,1.92e+00,1,1.86e+01
"1/0364566000.62602",2014-11-20T12:20:04.860,13818,456.00,81.00,80.89,"01:14:58",226.98,-0.240,1.100,102.33,7.30e+01,2,,6.61e+01,1.96e+00,1,1.82e+01
"1/0364566008.32652",2014-11-20T12:20:12.403,13818,453.00,80.56,80.45,"04:50:31",226.04,-0.230,1.100,101.95,7.40e+01,2,,6.79e+01,1.83e+00,1,1.95e+01
"1/0364566016.02767",2014-11-20T12:20:19.947,13818,449.00,80.12,80.00,"08:05:27",225.19,-0.220,1.100,101.58,1.08e+02,2,,1.45e+02,1.85e+00,1,1.93e+01
"1/0364566023.38353",2014-11-20T12:20:27.490,13818,446.00,79.68,79.55,"11:04:20",224.41,-0.220,1.100,101.20,1.24e+02,2,,1.91e+02,1.71e+00,2,2.09e+01
"1/0364566031.08403",2014-11-20T12:20:35.033,13818,442.00,79.23,79.10,"13:49:28",223.69,-0.210,1.100,100.82,1.27e+02,2,,2.00e+02,1.85e+00,1,1.93e+01
"1/0364566038.43989",2014-11-20T12:20:42.576,13818,439.00,78.78,78.65,"16:18:33",223.04,-0.200,1.100,100.44,1.36e+02,2,,2.29e+02,2.10e+00,1,1.70e+01
"1/0364566046.14039",2014-11-20T12:20:50.119,13818,436.00,78.33,78.19,"18:38:29",222.43,-0.190,1.110,100.06,1.31e+02,2,,2.13e+02,2.51e+00,1,1.42e+01
"1/0364566053.49691",2014-11-20T12:20:57.663,13818,433.00,77.88,77.74,"20:46:56",221.87,-0.190,1.110,99.68,1.53e+02,2,,2.90e+02,2.27e+00,1,1.57e+01
"1/0364566061.19741",2014-11-20T12:21:05.206,13818,430.00,77.43,77.28,"22:46:14",221.35,-0.180,1.110,99.30,1.70e+02,2,,3.58e+02,2.00e+00,1,1.78e+01
"1/0364566068.55327",2014-11-20T12:21:12.749,13818,427.00,76.97,76.82,"00:36:22",220.87,-0.170,1.110,98.92,1.84e+02,2,,4.20e+02,2.17e+00,1,1.65e+01
"1/0364566076.25377",2014-11-20T12:21:20.292,13818,424.00,76.51,76.35,"02:19:37",220.42,-0.160,1.110,98.53,1.75e+02,2,,3.80e+02,2.30e+00,1,1.55e+01
"1/0364566083.60963",2014-11-20T12:21:27.835,13818,422.00,76.05,75.89,"03:56:00",220.00,-0.160,1.110,98.15,1.74e+02,2,,3.75e+02,2.45e+00,2,1.46e+01
"1/0364566091.31079",2014-11-20T12:21:35.379,13818,419.00,75.59,75.42,"05:25:30",219.61,-0.150,1.110,97.76,1.82e+02,2,,4.11e+02,2.40e+00,2,1.49e+01
"1/0364566099.01129",2014-11-20T12:21:42.922,13818,417.00,75.13,74.95,"06:48:08",219.25,-0.140,1.110,97.38,2.00e+02,2,,4.96e+02,2.48e+00,1,1.44e+01
"1/0364566106.36715",2014-11-20T12:21:50.465,13818,414.00,74.67,74.49,"08:06:11",218.91,-0.130,1.110,96.99,2.12e+02,2,,5.57e+02,2.88e+00,1,1.24e+01
"1/0364566114.06765",2014-11-20T12:21:58.008,13818,412.00,74.20,74.02,"09:21:56",218.58,-0.130,1.110,96.60,2.29e+02,2,,6.50e+02,,,
"1/0364566121.42351",2014-11-20T12:22:05.551,13818,410.00,73.73,73.55,"10:30:49",218.28,-0.120,1.110,96.22,2.65e+02,2,,8.71e+02,2.00e+00,1,1.79e+01
"1/0364566129.12466",2014-11-20T12:22:13.095,13818,408.00,73.27,73.07,"11:35:06",218.00,-0.110,1.110,95.83,2.55e+02,2,,8.06e+02,1.86e+00,1,1.91e+01
"1/0364566136.48052",2014-11-20T12:22:20.638,13818,406.00,72.80,72.60,"12:37:06",217.73,-0.100,1.110,95.44,2.49e+02,2,,7.69e+02,1.73e+00,2,2.07e+01
"1/0364566144.18102",2014-11-20T12:22:28.181,13818,404.00,72.33,72.13,"13:36:49",217.47,-0.090,1.110,95.05,2.61e+02,2,,8.45e+02,1.86e+00,2,1.92e+01
"1/0364566151.53688",2014-11-20T12:22:35.724,13818,402.00,71.86,71.65,"14:29:39",217.24,-0.090,1.110,94.66,2.60e+02,2,,8.38e+02,2.13e+00,1,1.67e+01
"1/0364566159.23738",2014-11-20T12:22:43.267,13818,400.00,71.39,71.18,"15:22:29",217.01,-0.080,1.110,94.27,2.66e+02,2,,8.77e+02,2.39e+00,2,1.49e+01
"1/0364566166.59390",2014-11-20T12:22:50.811,13818,398.00,70.92,70.70,"16:13:02",216.79,-0.070,1.110,93.88,2.69e+02,2,,8.97e+02,,,
"1/0364566174.29440",2014-11-20T12:22:58.354,13818,397.00,70.45,70.23,"16:58:59",216.59,-0.060,1.110,93.49,2.64e+02,2,,8.64e+02,2.55e+00,1,1.40e+01
"1/0364566181.65026",2014-11-20T12:23:05.897,13818,395.00,69.98,69.75,"17:42:39",216.40,-0.060,1.110,93.10,2.31e+02,2,,6.62e+02,2.35e+00,1,1.52e+01
"1/0364566189.35076",2014-11-20T12:23:13.440,13818,394.00,69.50,69.27,"18:24:02",216.22,-0.050,1.110,92.71,2.32e+02,2,,6.67e+02,1.88e+00,1,1.90e+01
"1/0364566197.05126",2014-11-20T12:23:20.983,13818,393.00,69.03,68.79,"19:05:24",216.04,-0.040,1.110,92.31,2.78e+02,2,,9.58e+02,1.95e+00,1,1.83e+01
"1/0364566204.40778",2014-11-20T12:23:28.527,13818,391.00,68.55,68.31,"19:42:12",215.88,-0.030,1.110,91.92,2.97e+02,2,,1.09e+03,1.98e+00,2,1.81e+01
"1/0364566212.10828",2014-11-20T12:23:36.070,13818,390.00,68.08,67.83,"20:18:59",215.72,-0.030,1.110,91.53,2.93e+02,2,,1.06e+03,2.12e+00,1,1.68e+01
"1/0364566219.46414",2014-11-20T12:23:43.613,13818,389.00,67.60,67.35,"20:53:29",215.57,-0.020,1.110,91.13,3.08e+02,2,,1.18e+03,1.93e+00,1,1.85e+01
"1/0364566227.16464",2014-11-20T12:23:51.156,13818,389.00,67.13,66.87,"21:25:42",215.43,-0.010,1.110,90.74,3.26e+02,2,,1.32e+03,2.01e+00,1,1.78e+01
"1/0364566234.52050",2014-11-20T12:23:58.699,13818,388.00,66.65,66.39,"21:57:54",215.29,-0.000,1.110,90.35,3.67e+02,2,,1.67e+03,2.13e+00,1,1.68e+01
"1/0364566242.22165",2014-11-20T12:24:06.243,13818,387.00,66.17,65.91,"22:27:49",215.16,0.010,1.110,89.95,3.94e+02,2,,1.93e+03,2.14e+00,1,1.67e+01
"1/0364566249.57751",2014-11-20T12:24:13.786,13818,386.00,65.70,65.43,"22:57:44",215.03,0.010,1.110,89.56,3.82e+02,2,,1.81e+03,2.01e+00,1,1.78e+01
"1/0364566257.27801",2014-11-20T12:24:21.329,13818,386.00,65.22,64.95,"23:23:04",214.92,0.020,1.110,89.16,3.63e+02,2,,1.63e+03,2.09e+00,1,1.71e+01
"1/0364566264.63387",2014-11-20T12:24:28.872,13818,386.00,64.74,64.47,"23:50:41",214.80,0.030,1.110,88.77,3.72e+02,2,,1.72e+03,,,
"1/0364566272.33437",2014-11-20T12:24:36.415,13818,385.00,64.26,63.99,"00:16:01",214.69,0.040,1.110,88.37,3.88e+02,2,,1.87e+03,2.20e+00,1,1.62e+01
"1/0364566280.03553",2014-11-20T12:24:43.959,13818,385.00,63.78,63.50,"00:39:04",214.59,0.040,1.110,87.98,3.30e+02,2,,1.35e+03,1.82e+00,1,1.96e+01
"1/0364566287.39139",2014-11-20T12:24:51.502,13818,385.00,63.30,63.02,"01:02:06",214.49,0.050,1.110,87.59,2.74e+02,2,,9.31e+02,1.70e+00,2,2.10e+01
"1/0364566295.09189",2014-11-20T12:24:59.045,13818,385.00,62.83,62.54,"01:22:51",214.40,0.060,1.110,87.19,2.71e+02,2,,9.11e+02,1.79e+00,2,2.00e+01
"1/0364566302.44775",2014-11-20T12:25:06.588,13818,385.00,62.35,62.06,"01:43:36",214.31,0.070,1.110,86.80,2.55e+02,2,,8.06e+02,1.70e+00,2,2.11e+01
"1/0364566310.14825",2014-11-20T12:25:14.131,13818,385.00,61.87,61.57,"02:04:21",214.22,0.070,1.110,86.40,2.95e+02,2,,1.08e+03,1.71e+00,1,2.09e+01
"1/0364566317.50477",2014-11-20T12:25:21.675,13818,385.00,61.39,61.09,"02:25:06",214.13,0.080,1.110,86.01,2.99e+02,2,,1.11e+03,1.92e+00,1,1.86e+01
"1/0364566325.20527",2014-11-20T12:25:29.218,13818,386.00,60.91,60.61,"02:43:33",214.05,0.090,1.100,85.61,3.11e+02,2,,1.20e+03,1.95e+00,1,1.84e+01
"1/0364566332.56113",2014-11-20T12:25:36.761,13818,386.00,60.43,60.13,"02:59:43",213.98,0.100,1.100,85.22,3.12e+02,2,,1.21e+03,1.75e+00,1,2.05e+01
"1/0364566340.26163",2014-11-20T12:25:44.304,13818,387.00,59.95,59.65,"03:18:11",213.90,0.110,1.100,84.82,2.76e+02,2,,9.45e+02,1.81e+00,2,1.97e+01
"1/0364566347.61749",2014-11-20T12:25:51.847,13818,387.00,59.47,59.16,"03:34:21",213.83,0.110,1.100,84.43,2.83e+02,2,,9.93e+02,1.80e+00,2,1.99e+01
"1/0364566355.31864",2014-11-20T12:25:59.391,13818,388.00,58.99,58.68,"03:48:13",213.77,0.120,1.100,84.04,3.24e+02,2,,1.30e+03,2.00e+00,1,1.79e+01
"1/0364566363.01914",2014-11-20T12:26:06.934,13818,389.00,58.51,58.20,"04:04:23",213.70,0.130,1.100,83.64,3.25e+02,2,,1.31e+03,1.98e+00,1,1.80e+01
"1/0364566370.37500",2014-11-20T12:26:14.477,13818,390.00,58.03,57.72,"04:18:15",213.64,0.140,1.100,83.25,3.01e+02,2,,1.12e+03,1.91e+00,2,1.87e+01
"1/0364566378.07550",2014-11-20T12:26:22.020,13818,391.00,57.55,57.24,"04:32:08",213.58,0.140,1.100,82.86,2.99e+02,2,,1.11e+03,1.93e+00,1,1.85e+01
"1/0364566385.43136",2014-11-20T12:26:29.563,13818,392.00,57.08,56.75,"04:46:00",213.52,0.150,1.100,82.46,3.40e+02,2,,1.43e+03,2.07e+00,1,1.72e+01
"1/0364566393.13252",2014-11-20T12:26:37.107,13818,393.00,56.60,56.27,"04:57:35",213.47,0.160,1.100,82.07,3.12e+02,2,,1.21e+03,1.90e+00,1,1.88e+01
"1/0364566400.48838",2014-11-20T12:26:44.650,13818,395.00,56.12,55.79,"05:11:27",213.41,0.170,1.100,81.68,3.45e+02,2,,1.48e+03,,,
"1/0364566408.18888",2014-11-20T12:26:52.193,13818,396.00,55.64,55.31,"05:23:02",213.36,0.170,1.100,81.29,3.60e+02,2,,1.61e+03,,,
"1/0364566415.54474",2014-11-20T12:26:59.736,13818,398.00,55.16,54.83,"05:34:37",213.31,0.180,1.100,80.90,3.82e+02,2,,1.81e+03,1.90e+00,1,1.88e+01
"1/0364566423.24524",2014-11-20T12:27:07.279,13818,399.00,54.68,54.35,"05:43:55",213.27,0.190,1.100,80.51,3.64e+02,2,,1.64e+03,1.92e+00,1,1.86e+01
"1/0364566430.60176",2014-11-20T12:27:14.823,13818,401.00,54.21,53.87,"05:55:29",213.22,0.200,1.100,80.12,3.60e+02,2,,1.61e+03,1.84e+00,1,1.94e+01
"1/0364566438.30226",2014-11-20T12:27:22.366,13818,403.00,53.73,53.40,"06:04:47",213.18,0.200,1.100,79.73,3.26e+02,2,,1.32e+03,1.74e+00,1,2.05e+01
"1/0364566446.00276",2014-11-20T12:27:29.909,13818,405.00,53.25,52.92,"06:14:04",213.14,0.210,1.090,79.34,3.69e+02,2,,1.69e+03,1.72e+00,1,2.08e+01
"1/0364566453.35862",2014-11-20T12:27:37.452,13818,407.00,52.78,52.44,"06:23:22",213.10,0.220,1.090,78.95,4.19e+02,2,,2.18e+03,1.86e+00,1,1.92e+01
"1/0364566461.05977",2014-11-20T12:27:44.996,13818,409.00,52.30,51.96,"06:32:39",213.06,0.230,1.090,78.57,3.97e+02,2,,1.95e+03,1.85e+00,1,1.93e+01
"1/0364566468.41563",2014-11-20T12:27:52.539,13818,411.00,51.83,51.49,"06:41:56",213.02,0.230,1.090,78.18,3.51e+02,2,,1.53e+03,1.65e+00,1,2.17e+01
"1/0364566476.11613",2014-11-20T12:28:00.082,13818,413.00,51.35,51.01,"06:48:56",212.99,0.240,1.090,77.79,4.07e+02,2,,2.05e+03,1.73e+00,2,2.06e+01
"1/0364566483.47199",2014-11-20T12:28:07.625,13818,416.00,50.88,50.54,"06:58:14",212.95,0.250,1.090,77.41,3.71e+02,2,,1.71e+03,1.63e+00,1,2.19e+01
"1/0364566491.17249",2014-11-20T12:28:15.168,13818,418.00,50.40,50.06,"07:05:13",212.92,0.260,1.090,77.02,3.84e+02,2,,1.83e+03,1.57e+00,1,2.27e+01
"1/0364566498.52901",2014-11-20T12:28:22.712,13818,421.00,49.93,49.59,"07:12:13",212.89,0.260,1.090,76.64,3.64e+02,2,,1.64e+03,1.50e+00,1,2.38e+01
"1/0364566506.22951",2014-11-20T12:28:30.255,13818,423.00,49.46,49.11,"07:19:13",212.86,0.270,1.090,76.26,4.05e+02,2,,2.03e+03,1.41e+00,1,2.54e+01
"1/0364566513.58537",2014-11-20T12:28:37.798,13818,426.00,48.98,48.64,"07:26:13",212.83,0.280,1.090,75.87,3.44e+02,2,,1.47e+03,1.24e+00,2,2.88e+01
"1/0364566521.28587",2014-11-20T12:28:45.341,13818,429.00,48.51,48.17,"07:33:13",212.80,0.290,1.090,75.49,3.54e+02,2,,1.55e+03,1.22e+00,2,2.93e+01
"1/0364566528.64173",2014-11-20T12:28:52.884,13818,432.00,48.04,47.70,"07:37:55",212.78,0.290,1.080,75.11,4.01e+02,2,,1.99e+03,,,
"1/0364566536.34289",2014-11-20T12:29:00.428,13818,435.00,47.57,47.23,"07:44:55",212.75,0.300,1.080,74.73,4.15e+02,2,,2.14e+03,1.28e+00,1,2.80e+01
"1/0364566544.04339",2014-11-20T12:29:07.971,13818,438.00,47.10,46.76,"07:49:38",212.73,0.310,1.080,74.35,3.81e+02,2,,1.80e+03,1.18e+00,2,3.02e+01
"1/0364566551.39925",2014-11-20T12:29:15.514,13818,441.00,46.63,46.29,"07:56:37",212.70,0.320,1.080,73.98,4.03e+02,2,,2.01e+03,1.18e+00,2,3.02e+01
"1/0364566559.09975",2014-11-20T12:29:23.057,13818,445.00,46.16,45.82,"08:01:20",212.68,0.320,1.080,73.60,4.15e+02,2,,2.14e+03,1.20e+00,2,2.98e+01
"1/0364566566.45561",2014-11-20T12:29:30.600,13818,448.00,45.70,45.35,"08:06:02",212.66,0.330,1.080,73.22,4.05e+02,2,,2.03e+03,1.14e+00,1,3.12e+01
"1/0364566574.15676",2014-11-20T12:29:38.144,13818,452.00,45.23,44.88,"08:10:44",212.64,0.340,1.080,72.85,3.85e+02,2,,1.84e+03,1.08e+00,3,3.31e+01
"1/0364566581.51262",2014-11-20T12:29:45.687,13818,455.00,44.76,44.42,"08:15:27",212.62,0.350,1.080,72.48,3.59e+02,2,,1.60e+03,1.01e+00,3,3.54e+01
"1/0364566589.21312",2014-11-20T12:29:53.230,13818,459.00,44.30,43.95,"08:20:09",212.60,0.350,1.080,72.10,3.44e+02,2,,1.47e+03,9.68e-01,3,3.69e+01
"1/0364566596.56898",2014-11-20T12:30:00.773,13818,463.00,43.83,43.49,"08:24:52",212.58,0.360,1.070,71.73,3.40e+02,2,,1.43e+03,9.61e-01,3,3.72e+01
"1/0364566604.26948",2014-11-20T12:30:08.316,13818,466.00,43.37,43.03,"08:27:16",212.57,0.370,1.070,71.36,3.57e+02,2,,1.58e+03,9.73e-01,3,3.67e+01
"1/0364566611.62600",2014-11-20T12:30:15.860,13818,470.00,42.91,42.56,"08:31:59",212.55,0.380,1.070,70.99,3.69e+02,2,,1.69e+03,9.72e-01,3,3.67e+01
"1/0364566619.32650",2014-11-20T12:30:23.403,13818,474.00,42.44,42.10,"08:34:24",212.54,0.380,1.070,70.63,3.16e+02,2,,1.24e+03,8.97e-01,3,3.98e+01
"1/0364566627.02700",2014-11-20T12:30:30.946,13818,479.00,41.98,41.64,"08:39:06",212.52,0.390,1.070,70.26,3.76e+02,2,,1.75e+03,8.80e-01,3,4.06e+01
"1/0364566634.38286",2014-11-20T12:30:38.489,13818,483.00,41.52,41.18,"08:41:31",212.51,0.400,1.070,69.89,3.90e+02,2,,1.89e+03,8.76e-01,3,4.08e+01
"1/0364566642.08336",2014-11-20T12:30:46.032,13818,487.00,41.06,40.73,"08:43:56",212.50,0.400,1.070,69.53,3.95e+02,2,,1.93e+03,8.82e-01,3,4.05e+01